Weather in Tsypka

Russia / Krasnodar Krai     44°09′27″N   39°10′40″E
temp.,
°C
wind,
m/s
gust,
m/s
humid.,
%
clouds,
%
prec.,
mm/h
press.,
hPa
HPBL,
m
17 april, sat
sat1700:00+9ssw2294100 0.8 102053
03:00+8s1198100 4.1 102056
06:00+8sw1299100 6.4 1021155
09:00+8ssw1198100 12.9 1022126
12:00+8wnw0196100 3.2 1022153
15:00+8nne1195100 4.6 1022199
18:00+8ne1298100 0.9 1022121
21:00+8ne119793 1.0 102243
18 april, sun
sun1800:00+8ssw1198100 0.4 102136
03:00+8nne1298100 0.5 101950
06:00+8n2298100 0.3 101871
09:00+9nne2295100 0.4 1017146
12:00+10ene1194100 0.3 1017114
15:00+14nnw118917 0.6 1016176
18:00+16wsw1181100 0.1 101643
21:00+11ssw2396100 0.1 101748
19 april, mon
mon1900:00+11ssw2396100 0.0 101661
03:00+11ssw41599100 0.3 1016624
06:00+12ssw2696100 1.0 1016190
09:00+14ssw3892100 1.3 1015413
12:00+15s398799 2.3 1014525
15:00+20ssw4959100 2.3 10121059
18:00+16sw117877 0.0 101219
21:00+12ne2292100 0.0 101041
20 april, tue
tue2000:00+12nne2399100 0.0 100788
03:00+12ene2394100 0.0 100275
06:00+12wsw3492100 0.0 1003101
09:00+13ssw5989100 0.3 1005699
12:00+11ssw41095100 0.8 1009794
15:00+10ssw51390100 1.9 10121346
18:00+10ssw5158081 0.4 10131312
21:00+8ssw5149496 1.1 10161287
21 april, wed
wed2100:00+7ssw4109872 0.6 1017716
03:00+6ssw369988 0.7 1018303
06:00+6ssw2398100 0.0 1019108
09:00+10wsw1268100 0.0 1019463
12:00+15w234572 0.0 10191392
15:00+16w2147100 0.0 10191520
18:00+12nne2377100 0.2 1020192
21:00+8ne2293100 0.2 102135